Regional Weather Roundup
Issued by NWS Charleston, SC

Current Version | Previous Version | Text Only | Print | Product List | Glossary On
Versions: 1 2 3 4 5 6 7 8 9 10 11 12 13 14 15 16 17 18 19 20 21 22 23 24 25 26 27 28 29 30 31 32 33 34 35 36 37 38 39 40 41 42 43 44 45 46 47 48 49 50
000 ASUS42 KCHS 271212 RWRCHS REGIONAL WEATHER ROUNDUP NATIONAL WEATHER SERVICE CHARLESTON SC 800 AM EDT MON MAR 27 2017 NOTE: "FAIR" INDICATES FEW OR NO CLOUDS BELOW 12,000 FEET WITH NO SIGNIFICANT WEATHER AND/OR OBSTRUCTIONS TO VISIBILITY. NOT ALL STATIONS ARE QUALITY CONTROLLED. USE DATA WITH CAUTION... ESPECIALLY DEWPOINT OBSERVATIONS. SCZ027-030-031-034>040-042>050-271300- ...SOUTHEAST SOUTH CAROLINA... CITY SKY/WX TMP DP RH WIND PRES REMARKS N CHARLESTON CLEAR 60 57 89 S3 30.14R 6HR MIN TEMP: 57; 6HR MAX TEMP: 62; WATERFRONT PRK N/A 61 59 93 CALM 30.12R JOHNS ISLAND FAIR 59 57 94 CALM 30.14R PINOPOLIS N/A 61 57 88 VRB3 30.03R MONCKS CORNER FAIR 52 50 93 CALM 30.13S SUMMERVILLE FAIR 54 54 100 CALM 30.14S BEAUFORT MCAS PTCLDY 59 58 96 CALM 30.13R 6HR MIN TEMP: 57; 6HR MAX TEMP: 63; BEAUFORT ARPT PTSUNNY 61 59 94 CALM 30.13R HILTON HEAD IS PTCLDY 61 61 100 CALM 30.14R WALTERBORO MOSUNNY 54 54 100 CALM 30.14S ALLENDALE FAIR 59 59 100 CALM 30.11S ...SOUTHERN MIDLANDS AND PEE DEE... CITY SKY/WX TMP DP RH WIND PRES REMARKS GEORGETOWN FAIR 52 52 100 CALM 30.15S KINGSTREE PTSUNNY 54 52 94 CALM 30.14R ORANGEBURG CLEAR 59 58 96 SE5 30.12S 6HR MIN TEMP: 56; 6HR MAX TEMP: 60; BARNWELL FAIR 57 57 100 CALM 30.12R FOG AIKEN FAIR 59 57 94 S8 30.13S MANNING FAIR 55 54 94 CALM 30.13S COLUMBIA PTCLDY 62 58 86 SE6 30.10S 6HR MIN TEMP: 60; 6HR MAX TEMP: 64; SUMTER CLEAR 56 55 95 CALM 30.10S 6HR MIN TEMP: 55; 6HR MAX TEMP: 61; FLORENCE CLOUDY 61 58 90 S8 30.13R 6HR MIN TEMP: 56; 6HR MAX TEMP: 61; MYRTLE BEACH CLEAR 55 55 100 CALM 30.15R N MYRTLE BEACH CLEAR 56 56 100 CALM 30.14R 6HR MIN TEMP: 53; 6HR MAX TEMP: 65; $$ GAZ063-065-086>088-099>101-113>116-118-119-134>141-150-271300- ...SOUTHEAST GEORGIA... CITY SKY/WX TMP DP RH WIND PRES REMARKS SAVANNAH ARPT PTCLDY 61 58 90 SE6 30.13R 6HR MIN TEMP: 58; 6HR MAX TEMP: 64; HUNTER AAF CLEAR 59 59 100 CALM 30.10S 6HR MIN TEMP: 58; 6HR MAX TEMP: 65; FORT STEWART FOG 55 55 100 CALM 30.11R VSB 3/4 6HR MIN TEMP: 54; 6HR MAX TEMP: 58; STATESBORO PTCLDY 61 32 34 CALM 30.12R SYLVANIA MOSUNNY N/A N/A N/A CALM 30.13R FOG CLAXTON PTSUNNY N/A N/A N/A CALM 30.13R ...CSRA...CENTRAL AND FAR SOUTHEAST GEORGIA... CITY SKY/WX TMP DP RH WIND PRES REMARKS THOMSON CLEAR 60 58 92 W6 30.15R AUGUSTA-BUSH PTCLDY 56 54 93 CALM 30.10S 6HR MIN TEMP: 56; 6HR MAX TEMP: 65; AUGUSTA-DANIEL PTCLDY 60 56 86 SE7 30.11R FOG SWAINSBORO FAIR 61 61 100 CALM 30.12S VIDALIA CLOUDY 63 61 94 CALM 30.12S EASTMAN FAIR 62 61 98 CALM 30.13S HAZLEHURST PTSUNNY 64 64 100 S5 30.11R ALMA CLEAR 60 60 100 CALM 30.11S 6HR MIN TEMP: 60; 6HR MAX TEMP: 62; WAYCROSS CLOUDY 64 64 100 CALM 30.12R JESUP CLOUDY 54 52 94 CALM 30.13R FOG BAXLEY FAIR 59 59 100 CALM 30.12R BRUNSWICK FOG 55 55 100 CALM 30.13S VSB 1/2 SAINT SIMONS CLEAR 62 60 93 CALM 30.12R 6HR MIN TEMP: 60; 6HR MAX TEMP: 66; $$ SCZ027-028-034-036>038-045-046-048>050-GAZ119-141-271300- ...LAKE AND SUPPLEMENTAL COASTAL OBSERVATIONS... STATION/POSITION TIME TEMP WIND PRES WAVE SWELL AIR SEA DIR/SP/G HT/PER HT/PER/DIR (UTC) (F) (DEG/KT/KT) (MB) (FT/S) (FT/S/D) WINYAH BAY 1045 56 330/ 1 1020.0 LAKE MURRAY 1120 62 170/ 5/ 7 1018.6 ACE BASIN NERRS 1045 58 CALM 1020.0 FORT PULASKI 1148 64 63 CALM 1020.4R SAPELO ISLAND 1100 59 CALM 1020.0 $$ ANZ835-935-AMZ111-154-330-350-352-354-370-450-454-472-271300- ...C-MAN AND BUOY OBSERVATIONS... STATION/POSITION TIME TEMP WIND PRES WAVE SWELL AIR SEA DIR/SP/G HT/PER HT/PER/DIR (UTC) (F) (DEG/KT/KT) (MB) (FT/S) (FT/S/D) BUOY 41004 1050 71 74 190/ 8/ 10 1019.5 4/ 9 3/140/ 9 BUOY 41008 1050 64 62 190/ 2/ 2 1019.3 4/ 9 3/120/ 9 FOLLY BEACH CMAN 1100 63 180/ 2/ 2 1020.6R CAPERS NEARSHORE 1108 62 220/ 2/ 4 1020.1R FRIPP NEARSHORE 1108 62 61 150/ 4/ 6 1019.6R STATION/POSITION TIME TEMP WIND PRES WAVE SWELL AIR SEA DIR/SP/G HT/PER HT/PER/DIR (UTC) (F) (DEG/KT/KT) (MB) (FT/S) (FT/S/D) 5E ST. MARYS GA 1130 65 N/A 4/10 2/110/11 FRYING PAN BUOY 1150 71 76 180/ 4/ 6 1020.8R 3/ 9 3/140/ 9 BUOY 41025 1150 70 76 180/ 8/ 10 1021.5R 3/ 9 3/120/ 9 CAPE LOOKOUT NC 1100 65 130/ 3/ 4 1020.5R BUOY 41002 1050 69 72 70/ 10/ 12 1020.6 5/ 8 5/120/ 8 BUOY 41010 NOT AVBL ST AUGUSTINE FL 1200 65 68 CALM / 1 1020.9R $$

USA.gov is the U.S. government's official web portal to all federal, state and local government web resources and services.